SCP
2 2 2 2 2 2 2 3 2 2 2 2 1 1 1 1 1 1 1 1 2 2 3 3 4 4 4 3 2 1 1 1 1 1 1 1 1 1 1 1 1 1 1
2 2 2 2 2 2 2 2 2 2 2 2 1 1 2 2 1 1 1 1 2 2 2 3 4 4 4 3 2 2 1 1 1 1 1 1 1 1 1 1 1 1 1
3 3 3 3 3 3 2 2 2 2 2 1 1 1 2 2 1 1 1 1 2 2 2 3 4 4 4 3 2 2 2 2 1 1 1 1 1 1 1 1 1 1 1
4 3 3 3 3 3 3 2 2 2 1 1 1 1 1 1 1 1 1 1 1 2 2 3 3 3 3 3 2 2 2 2 2 2 1 1 1 1 1 1 1 1 1
4 3 3 3 3 3 3 2 2 1 1 1 1 1 1 1 1 1 1 1 1 2 2 3 3 3 3 2 2 2 2 2 2 2 2 1 1 1 1 1 1 1 1
4 4 3 3 3 3 2 2 1 1 1 1 1 1 1 1 1 1 1 1 1 1 2 2 2 2 2 2 2 2 2 2 2 2 2 2 1 1 1 1 1 1 1
4 4 3 3 2 2 2 1 1 1 1 1 1 1 1 0 0 0 1 1 1 1 1 1 2 2 2 2 2 2 2 2 2 2 2 2 1 1 1 1 1 1 1
3 3 2 2 2 2 1 1 1 1 1 1 1 1 0 0 0 0 0 1 1 1 1 1 1 1 2 2 2 2 2 2 3 3 2 2 2 1 1 1 1 1 1
2 2 2 2 1 1 1 1 1 1 1 0 0 0 0 0 0 0 0 0 1 1 1 1 1 1 1 2 2 2 2 3 3 3 3 3 2 2 1 1 2 1 1
2 2 2 1 1 1 1 1 1 1 1 1 0 0 0 0 0 0 0 0 0 0 0 1 1 1 1 1 1 2 2 2 2 3 3 3 2 2 2 1 2 1 1
2 2 2 1 1 1 1 1 1 1 1 1 0 0 0 0 0 0 0 0 0 0 0 0 0 0 1 1 1 1 1 2 2 2 2 2 2 2 2 1 2 2 1
2 2 2 1 1 1 1 1 1 1 1 0 0 0 0 0 0 0 0 0 0 0 0 0 0 0 0 1 1 1 1 1 1 1 1 1 2 2 1 1 1 2 2
1 1 1 1 1 1 1 1 1 1 1 0 0 0 0 0 0 0 0 0 0 0 0 0 0 0 0 1 1 1 1 1 1 1 1 1 1 2 2 1 1 1 1
1 1 1 1 1 1 1 1 1 1 1 0 0 0 0 0 0 0 0 0 0 0 0 0 0 0 0 0 1 1 1 1 1 1 1 1 1 1 1 1 1 1 1
1 1 1 1 1 1 1 1 1 1 1 0 0 0 0 0 0 0 0 0 0 0 0 0 0 0 0 0 0 0 1 1 1 1 0 0 1 1 1 1 1 1 1
1 1 1 1 1 1 1 2 1 1 1 1 0 0 0 0 0 0 0 0 0 0 0 0 0 0 0 0 0 0 0 0 1 0 0 0 0 0 0 0 0 0 1
1 1 1 1 1 1 1 1 1 1 1 1 0 0 0 0 0 0 0 0 0 0 0 0 0 0 0 0 0 0 0 0 0 0 0 0 0 0 0 0 0 0 0
0 0 0 0 0 0 0 1 1 1 1 1 0 0 0 0 0 0 0 0 0 0 0 0 0 0 0 0 0 0 0 0 0 0 0 0 0 0 0 0 0 0 0
0 0 0 0 0 0 0 0 1 1 1 0 0 0 0 0 0 0 0 0 0 0 0 0 0 0 0 0 0 0 0 0 0 0 0 0 0 0 0 0 0 0 0
0 0 0 0 0 0 0 0 0 0 0 0 0 0 0 0 0 0 0 0 0 0 0 0 0 0 0 0 0 0 0 0 0 0 0 0 0 0 0 0 0 0 0
0 0 0 0 0 0 0 0 0 0 0 0 0 0 0 0 0 0 0 0 0 0 0 0 0 0 0 0 0 0 0 0 0 0 0 0 0 0 0 0 0 0 0
0 0 0 0 0 0 0 0 0 0 0 0 0 0 0 0 0 0 0 0 0 0 0 0 0 0 0 0 0 0 0 0 0 0 0 0 0 0 0 0 0 0 0
0 0 0 0 0 0 0 0 0 0 0 0 0 0 0 0 0 0 0 0 0 0 0 0 0 0 0 0 0 0 0 0 0 0 0 0 0 0 0 0 0 0 0
0 0 0 0 0 0 0 0 0 0 0 0 0 0 0 0 0 0 0 0 0 0 0 0 0 0 0 0 0 0 0 0 0 0 0 0 0 0 0 0 0 0 0
0 0 0 0 0 0 0 0 0 0 0 0 0 0 0 0 0 0 0 0 0 0 0 0 0 0 0 0 0 0 0 0 0 0 0 0 0 0 0 0 0 0 0
0 0 0 0 0 0 0 0 0 0 0 0 0 0 0 0 0 0 0 0 0 0 0 0 0 0 0 0 0 0 0 0 0 0 0 0 0 0 0 0 0 0 0
Wind_Speed
5 5 3 2 3 2 3 4 5 6 6 7 7 8 8 8 8 8 6 13 16 16 18 20 21 20 20 19 19 18 18 19 18 18 18 19 18 18 18 17 17 16 15
5 4 3 2 2 2 3 4 5 5 5 5 6 7 7 7 8 8 7 9 13 14 17 18 19 20 20 20 19 19 19 19 18 17 18 19 18 18 18 18 18 17 16
5 4 3 2 2 2 3 2 3 3 3 3 5 5 5 6 6 7 7 5 6 12 17 18 18 18 19 20 20 20 19 19 18 18 18 18 18 19 19 19 19 18 18
5 4 3 2 2 1 1 1 1 2 2 2 3 4 4 4 6 7 6 6 5 6 11 17 18 19 20 21 20 20 19 19 18 18 18 19 19 19 19 19 19 19 18
5 4 2 2 1 1 0 1 0 1 2 3 3 4 4 4 5 7 7 7 6 6 6 10 17 19 21 21 20 20 20 19 19 19 19 20 19 19 19 20 20 19 19
4 4 3 2 2 1 0 0 1 1 2 2 4 4 4 5 4 5 7 6 5 7 7 8 7 10 17 18 18 19 20 20 19 20 20 20 20 19 19 20 20 20 20
4 3 2 2 2 2 1 1 1 1 1 1 1 3 4 5 5 5 5 4 5 5 5 6 5 5 5 12 15 17 20 20 19 19 19 20 20 19 19 20 20 20 20
4 4 3 3 3 2 1 1 1 0 1 0 1 1 4 5 4 3 2 3 4 3 4 5 5 5 4 4 7 13 16 18 18 18 19 20 19 19 19 20 20 20 20
4 4 5 4 4 3 2 2 2 2 1 1 1 2 1 3 4 4 3 2 2 2 3 4 5 6 6 5 5 9 13 13 15 17 18 18 18 18 19 19 20 19 20
2 4 5 4 4 4 4 3 3 3 3 2 1 2 3 3 2 4 4 3 4 3 4 4 5 5 5 5 7 10 12 12 14 17 17 17 16 16 17 18 19 19 19
3 3 3 3 4 3 4 4 3 3 3 3 3 2 2 2 3 3 5 4 4 4 3 4 4 4 4 5 5 8 10 10 11 13 13 14 14 15 16 17 19 20 20
3 3 2 3 3 3 4 4 4 4 4 4 3 3 3 3 3 3 4 4 5 4 4 3 3 4 4 4 7 9 9 9 9 11 11 11 12 12 14 15 16 17 18
3 4 3 3 3 4 4 4 4 4 5 5 5 4 4 4 4 3 4 4 4 4 3 3 3 3 3 3 4 8 8 8 9 9 10 10 10 10 11 12 14 15 16
3 4 4 3 4 4 4 4 3 4 4 5 6 5 4 4 4 4 4 3 4 4 3 4 2 3 2 2 3 5 4 7 7 7 7 7 7 8 8 9 10 10 11
4 4 4 4 4 4 4 5 4 5 5 5 6 6 5 4 4 4 4 4 4 4 5 3 2 2 1 1 2 2 2 5 6 6 6 6 6 6 6 6 7 7 7
5 5 5 5 5 4 5 4 5 5 6 6 5 6 6 4 4 4 4 4 4 4 5 3 3 3 2 1 1 1 1 4 5 6 7 7 7 7 7 8 8 8 8
5 5 5 5 5 5 5 4 5 6 7 7 6 6 7 5 4 4 4 4 4 4 6 4 2 2 1 1 1 2 2 2 3 6 8 9 9 9 9 9 9 10 10
6 6 6 5 5 5 5 5 6 6 7 7 7 7 7 5 6 4 4 5 5 5 5 5 3 2 2 2 3 3 3 4 4 7 10 10 11 11 11 11 11 12 12
7 6 6 6 6 5 5 6 6 7 7 7 7 8 7 6 6 4 4 5 4 5 4 4 4 2 1 2 3 4 5 4 5 8 10 11 12 12 12 13 13 13 13
7 7 6 6 6 6 6 6 6 6 6 6 7 8 8 8 7 6 5 5 4 4 4 4 3 2 2 3 4 5 4 4 5 6 8 9 11 13 13 13 14 14 13
7 7 6 6 6 5 6 5 5 7 6 6 6 7 7 9 10 7 5 5 4 4 4 4 4 3 3 5 5 4 6 6 4 4 6 6 6 6 6 9 12 13 13
7 6 6 6 6 6 8 10 8 6 6 6 7 7 7 8 10 10 10 8 7 6 6 5 4 5 5 5 5 7 8 7 4 3 5 5 4 5 4 4 8 11 11
7 7 7 7 7 8 12 12 12 7 7 6 7 6 6 6 8 6 6 6 6 7 8 6 7 6 6 7 8 8 8 6 5 6 5 5 3 4 3 4 8 9 10
7 7 7 8 7 9 12 12 12 8 6 7 7 7 7 6 7 7 5 4 3 3 5 5 5 5 6 6 7 8 9 7 7 4 4 5 3 3 4 3 6 8 8
7 7 6 7 8 9 12 13 11 5 5 6 6 7 7 7 10 10 7 6 4 2 3 6 6 7 9 10 9 8 8 9 8 4 2 4 4 3 3 2 3 5 6
8 7 7 7 8 8 11 13 10 4 5 5 5 5 8 8 10 12 8 8 6 4 4 5 6 6 7 9 10 8 9 9 8 5 2 4 4 4 4 2 2 2 3
Wind_Direction
216 220 221 215 213 209 215 223 229 233 233 234 236 237 236 234 233 227 236 242 239 237 231 225 222 220 218 218 217 217 217 217 214 211 211 211 211 209 208 207 207 205 204
205 203 202 203 206 204 212 216 223 228 232 230 238 239 236 232 232 230 231 239 235 230 226 225 224 227 225 222 220 220 220 221 217 213 213 214 213 212 210 210 208 207 206
186 184 185 202 218 220 225 226 237 235 238 239 245 247 241 233 233 234 234 231 231 230 227 225 226 229 230 230 226 224 221 220 219 217 216 216 215 214 211 211 210 208 207
170 165 168 195 212 209 215 235 251 268 267 256 254 256 251 243 241 241 238 229 224 231 230 231 231 233 235 236 234 230 226 223 220 218 218 217 217 216 213 213 212 209 208
158 152 159 172 153 132 146 254 259 238 270 279 272 261 255 250 247 249 242 236 227 228 227 235 234 232 236 239 239 236 232 228 223 220 220 220 220 218 215 214 212 210 208
152 146 148 150 136 126 135 239 248 253 247 263 285 287 271 259 248 245 247 245 232 231 231 234 233 237 239 240 239 239 237 235 230 224 223 223 222 219 217 215 213 211 209
156 152 154 156 151 161 201 214 216 271 277 300 335 312 295 272 258 248 245 244 242 239 232 231 225 228 238 239 239 241 240 238 234 230 226 225 223 220 217 217 214 213 210
172 168 173 187 181 174 197 207 174 186 279 46 137 322 325 328 320 288 270 248 251 244 242 242 231 225 233 236 240 242 245 243 240 236 232 227 224 220 218 217 214 213 211
188 186 195 186 184 179 195 210 185 175 220 268 175 178 240 283 311 311 304 293 291 266 253 246 239 233 228 228 236 239 241 242 243 240 236 229 223 220 217 218 214 212 210
217 210 199 189 190 190 196 209 188 185 181 232 262 210 205 210 256 305 313 314 308 289 277 272 260 246 231 226 232 235 235 234 237 239 237 230 223 220 218 218 215 212 211
249 225 205 191 196 202 205 207 201 201 191 200 213 223 235 237 222 236 284 304 312 294 287 270 260 251 236 228 231 235 231 231 234 237 236 231 224 221 219 218 218 215 212
286 269 235 212 206 207 211 211 211 212 212 214 215 208 206 220 226 227 259 281 287 286 289 275 262 252 243 234 236 232 225 225 228 231 227 226 223 220 218 216 218 217 215
300 293 279 246 230 222 217 208 210 223 221 222 222 220 216 220 215 217 245 269 274 282 282 279 261 255 252 240 240 230 228 222 220 222 220 218 214 216 213 211 215 216 215
285 291 290 272 251 233 228 218 219 227 228 228 235 229 225 228 217 214 221 245 279 283 269 267 279 259 253 238 237 224 228 216 212 207 206 205 201 202 200 200 202 203 205
300 304 295 287 277 251 233 228 231 230 228 230 234 234 232 232 225 225 221 214 233 272 281 261 261 269 261 256 238 217 205 193 189 181 180 175 171 173 171 171 174 175 180
298 302 299 291 283 271 251 237 238 236 232 235 231 232 235 233 232 227 225 223 216 229 258 254 251 267 271 261 238 186 176 162 165 159 154 148 146 145 142 139 142 144 148
290 290 286 284 283 279 271 255 248 243 237 240 238 232 235 229 231 231 227 225 222 217 247 264 254 262 262 220 183 129 126 123 128 135 134 130 126 124 123 124 124 122 121
276 274 274 274 274 277 272 261 259 258 247 242 237 231 235 231 231 230 227 230 228 220 227 253 258 241 239 194 167 142 129 117 113 114 115 115 114 113 112 111 110 110 110
268 271 269 267 266 268 268 260 253 255 250 246 237 228 228 222 229 230 231 234 232 229 218 223 240 229 212 170 150 129 114 105 106 109 104 104 106 107 107 106 105 104 104
259 261 260 258 256 258 261 262 264 261 256 252 243 232 223 215 218 222 230 233 228 224 216 212 215 203 184 164 149 136 124 110 109 108 97 97 99 99 103 107 109 108 106
257 251 251 256 257 259 260 265 264 268 258 256 252 241 229 221 216 214 221 222 214 211 208 203 195 185 179 169 160 144 135 119 93 106 109 102 99 94 94 105 110 113 110
254 252 250 251 255 266 274 274 268 264 256 251 253 245 236 227 219 216 218 216 207 204 202 194 194 189 184 169 152 148 143 139 125 131 115 106 104 101 98 96 116 117 115
245 246 249 248 250 256 263 268 267 259 251 247 246 237 238 228 208 208 213 213 214 214 204 195 189 190 180 171 157 153 155 145 132 148 126 108 105 104 104 113 126 123 121
238 238 242 244 248 258 261 264 265 258 248 246 241 232 231 222 209 195 190 188 199 205 204 199 190 186 169 160 158 153 145 117 103 124 125 113 115 101 93 93 125 126 125
242 241 240 241 245 256 259 260 257 242 244 247 242 237 230 219 209 189 178 178 184 201 181 168 165 157 149 148 145 137 139 138 135 140 125 110 120 100 85 83 107 127 127
241 240 243 241 242 250 255 254 247 229 237 244 241 239 230 220 202 186 179 175 179 186 159 144 143 141 143 145 148 150 149 145 138 134 151 115 132 123 105 83 101 113 114